Regional Weather Roundup
Issued by NWS

Home | Current Version | Previous Version | Text Only | Print | Product List | Glossary On
Versions: 1 2 3 4 5 6 7 8 9 10 11 12 13 14 15 16 17 18 19 20 21 22 23 24 25 26 27 28 29 30 31 32 33 34 35 36 37 38 39 40 41 42 43 44 45 46 47 48 49 50
000
ASUS45 KBOU 032107
RWRCO

WEATHER ROUNDUP FOR COLORADO
NATIONAL WEATHER SERVICE DENVER/BOULDER CO
300 PM MDT MON AUG 03 2015

NOTE: "FAIR" INDICATES FEW OR NO CLOUDS BELOW 12000 FEET WITH NO
SIGNIFICANT WEATHER AND/OR OBSTRUCTIONS TO VISIBILITY.

COZ001>005-013-030-031-032200-
...NORTHWEST COLORADO...

CITY           SKY/WX    TMP DP  RH WIND       PRES   REMARKS
CRAIG          PTSUNNY   77  51  40 VRB7      30.11F
HAYDEN         PTSUNNY   73  45  35 E6        30.14F
MEEKER         CLOUDY    77  48  35 SW16G25   30.14S
MOUNT WERNER   NOT AVBL
STEAMBOAT SPGS   N/A     75  42  31 CALM      30.17F
WALDEN         CLOUDY    66  37  34 S12G21    30.28S
$$

COZ006>008-011-032200-
...WEST CENTRAL VALLEYS...

CITY           SKY/WX    TMP DP  RH WIND       PRES   REMARKS
GRAND JUNCTION PTSUNNY   85  48  27 W16G23    30.06F
MONTROSE       MOSUNNY   82  51  34 NW13      30.16R
EAGLE          PTSUNNY   66  48  52 SW3G20    30.22R
RIFLE          PTSUNNY   73  54  51 S6        30.14R THUNDER
DELTA          MOSUNNY   85  51  30 S5        30.10F
NUCLA          PTSUNNY   79  50  36 S7        30.20F
$$

COZ017>023-064>068-032200-
...SOUTHWEST COLORADO...

CITY           SKY/WX    TMP DP  RH WIND       PRES   REMARKS
DURANGO        MOSUNNY   81  44  27 W17G25    30.21F
CORTEZ         MOSUNNY   82  51  34 NW10G18   30.18F
PAGOSA SPRINGS CLOUDY    73  46  37 SW7       30.29F
TELLURIDE      NOT AVBL
WOLF CREEK PAS NOT AVBL
$$

COZ009-010-012-014-032>034-037-058>063-032200-
...CENTRAL COLORADO...

CITY           SKY/WX    TMP DP  RH WIND       PRES   REMARKS
ASPEN          MOSUNNY   73  51  46 NW14      30.26S
BUENA VISTA    PTSUNNY   71  40  32 SW16G24   30.29F
COPPER MTN     PTSUNNY   59  41  51 W12       30.58F
BERTHOUD PASS  CLOUDY    43  32  65 MISG      30.63S
COTTONWOOD PAS PTSUNNY   63  36  36 W16G26    30.41F
GUNNISON       MOSUNNY   70  48  46 N6        30.31F
KREMMLING      CLOUDY    77  37  24 SE5       30.25F
LEADVILLE      PTSUNNY   62  40  44 CALM      30.41F
MONARCH PASS   PTSUNNY   54  37  54 SW22G33   30.68S
SALIDA         PTSUNNY   78  45  30 N8        30.30F
SUNLIGHT       PTSUNNY   54  54 100 CALM      30.49F THUNDER FOG
WILKERSON PASS NOT AVBL
$$

COZ069>075-032200-
...SAN LUIS VALLEY/SANGRE DE CRISTO MOUNTAINS...

CITY           SKY/WX    TMP DP  RH WIND       PRES   REMARKS
ALAMOSA        CLOUDY    73  48  41 N6        30.24F
LA VETA PASS   MOSUNNY   64  41  42 MISG      30.44S
SAGUACHE       PTSUNNY   68  46  45 SE6       30.29F
$$

COZ035-036-038>040-032200-
...NORTHERN COLORADO FRONT RANGE...

CITY           SKY/WX    TMP DP  RH WIND       PRES   REMARKS
DENVER INTL AP PTSUNNY   86  29  12 SE21G28   30.08F
DMNS CITY PARK   N/A     82  44  26 SE8       30.07F
AURORA         PTSUNNY   83  48  29 SE14      30.11S
FRONT RANGE AP PTSUNNY   84  32  15 SE16G23   30.11S
ERIE MUNI ARPT CLOUDY    84  39  20 S7        30.07S
BOULDER MUN AP CLOUDY    82  41  23 S5        30.08S
CENTENNIAL     CLOUDY    81  49  32 SE12      30.12S
BROOMFIELD     CLOUDY    81  43  26 SE7       30.11F
FORT COLLINS   CLOUDY    84  45  24 SE9G17    30.06S
LONGMONT       CLOUDY    85  40  20 W3        30.08S
$$

COZ041-046-047-076>085-087-088-032200-
...PIKES PEAK/PALMER DIVIDE AND SOUTHERN FOOTHILLS...

CITY           SKY/WX    TMP DP  RH WIND       PRES   REMARKS
COLO. SPRINGS  CLOUDY    72  53  51 NE18      30.19R
A. F. ACADEMY  PTSUNNY   67  55  67 NE9       30.20F
ELLICOTT       CLOUDY   N/A N/A N/A E15G21    30.17F
FALCON         RAIN      63  54  73 N6        30.25S
FORT CARSON    NOT AVBL
LIMON          LGT RAIN  76  45  33 SE26G35   30.11R
MONUMENT HILL  CLOUDY    63  52  67 S21       30.24R
TRINIDAD       SUNNY     86  49  27 NE5       30.08F
$$

COZ042>045-048>051-090-091-032200-
...NORTHEAST COLORADO...

CITY           SKY/WX    TMP DP  RH WIND       PRES   REMARKS
GREELEY ARPT   CLOUDY    84  43  23 S9G16     30.06S
AKRON          CLOUDY    86  55  34 SE15      30.06F
BURLINGTON     PTSUNNY   87  53  31 SE13      30.03F
WRAY           CLOUDY    90  50  24 E8        30.00S
STERLING       CLOUDY    90  57  33 S12       30.00S
HOLYOKE        CLOUDY    86  61  42 SE8       30.01F
FORT MORGAN    CLOUDY    84  44  24 S7        30.05S
$$

COZ086-089-092>099-032200-
...SOUTHEAST COLORADO...

CITY           SKY/WX    TMP DP  RH WIND       PRES   REMARKS
PUEBLO         MOSUNNY   87  50  27 SE8       30.03F
LA JUNTA       CLOUDY    79  58  48 E12       30.03R
LAMAR          LGT RAIN  70  59  68 VRB6      30.02R
SPRINGFIELD      N/A     83  56  39 SE7       30.02S
$$


USA.gov is the U.S. government's official web portal to all federal, state and local government web resources and services.